When you browse on this site, cookies collect data to enhance your experience and personalize the content and advertising you see.
Visit our Privacy Policy to learn more. By continuing to use the site, you agree to this use of cookies and data.
  • In Romania
  • List of Countries
  • For 7 days
  • Water Temperature
  • Satellite Maps
  • Weather Map
  • Weather Widgets
  • user-avatar
    Login

    Hourly Weather Nashua

    Today, 20 May, Monday

    Time Temperature Precipitation Wind Pressure Humidity
    00:00 +19°C° 0.1 mm 4 mps 755 mmHg 94%
    01:00 +19°C° 0 mm 2 mps 755 mmHg 95%
    02:00 +19°C° 0.7 mm 2 mps 754 mmHg 95%
    03:00 +20°C° 0.7 mm 3 mps 754 mmHg 96%
    04:00 +20°C° 0.7 mm 3 mps 754 mmHg 96%
    05:00 +20°C° 0.2 mm 3 mps 754 mmHg 94%
    06:00 +21°C° 0.2 mm 4 mps 753 mmHg 92%
    07:00 +22°C° 0 mm 3 mps 753 mmHg 87%
    08:00 +24°C° 0.1 mm 3 mps 752 mmHg 78%
    09:00 +26°C° 0.1 mm 4 mps 752 mmHg 69%
    10:00 +28°C° 0.1 mm 4 mps 751 mmHg 60%
    11:00 +29°C° 0.1 mm 5 mps 751 mmHg 54%
    12:00 +32°C° 0.1 mm 5 mps 750 mmHg 49%
    13:00 +33°C° 0.1 mm 6 mps 750 mmHg 43%
    14:00 +32°C° 0 mm 6 mps 750 mmHg 45%
    15:00 +32°C° 0 mm 6 mps 750 mmHg 46%
    16:00 +30°C° 0 mm 6 mps 750 mmHg 47%
    17:00 +28°C° 0 mm 5 mps 750 mmHg 55%
    18:00 +25°C° 0 mm 4 mps 750 mmHg 63%
    19:00 +22°C° 0 mm 3 mps 750 mmHg 71%
    20:00 +21°C° 0 mm 3 mps 751 mmHg 69%
    21:00 +20°C° 0 mm 3 mps 751 mmHg 68%
    22:00 +19°C° 0 mm 4 mps 752 mmHg 66%
    23:00 +17°C° 0 mm 3 mps 751 mmHg 66%

    Tomorrow, 21 May, Tuesday

    Time Temperature Precipitation Wind Pressure Humidity
    00:00 +16°C° 0 mm 3 mps 751 mmHg 66%
    01:00 +13°C° 0 mm 3 mps 751 mmHg 66%
    02:00 +13°C° 0 mm 3 mps 751 mmHg 68%
    03:00 +12°C° 0 mm 3 mps 751 mmHg 69%
    04:00 +12°C° 0 mm 4 mps 751 mmHg 70%
    05:00 +12°C° 0 mm 4 mps 752 mmHg 67%
    06:00 +13°C° 0 mm 5 mps 752 mmHg 63%
    07:00 +14°C° 0 mm 5 mps 752 mmHg 59%
    08:00 +15°C° 0 mm 6 mps 752 mmHg 53%
    09:00 +16°C° 0 mm 6 mps 752 mmHg 46%
    10:00 +17°C° 0 mm 6 mps 752 mmHg 40%
    11:00 +19°C° 0 mm 6 mps 752 mmHg 38%
    12:00 +20°C° 0 mm 7 mps 752 mmHg 36%
    13:00 +20°C° 0 mm 7 mps 752 mmHg 34%
    14:00 +18°C° 0 mm 7 mps 753 mmHg 37%
    15:00 +17°C° 0 mm 7 mps 753 mmHg 40%
    16:00 +16°C° 0 mm 7 mps 753 mmHg 43%
    17:00 +15°C° 0 mm 6 mps 754 mmHg 47%
    18:00 +14°C° 0 mm 4 mps 755 mmHg 51%
    19:00 +13°C° 0 mm 3 mps 755 mmHg 55%
    20:00 +12°C° 0 mm 3 mps 755 mmHg 56%
    21:00 +11°C° 0 mm 3 mps 756 mmHg 57%
    22:00 +11°C° 0 mm 3 mps 756 mmHg 58%
    23:00 +10°C° 0 mm 3 mps 757 mmHg 60%

    Day after tomorrow, 22 May, Wednesday

    Time Temperature Precipitation Wind Pressure Humidity
    00:00 +10°C° 0 mm 3 mps 757 mmHg 61%
    01:00 +10°C° 0 mm 4 mps 757 mmHg 63%
    02:00 +10°C° 0 mm 4 mps 758 mmHg 61%
    03:00 +10°C° 0 mm 4 mps 758 mmHg 59%
    04:00 +8°C° 0 mm 5 mps 759 mmHg 57%
    05:00 +9°C° 0 mm 5 mps 760 mmHg 55%
    06:00 +10°C° 0 mm 5 mps 760 mmHg 53%
    07:00 +12°C° 0 mm 5 mps 761 mmHg 50%
    08:00 +14°C° 0 mm 5 mps 761 mmHg 46%
    09:00 +16°C° 0 mm 6 mps 761 mmHg 41%
    10:00 +17°C° 0 mm 6 mps 761 mmHg 36%
    11:00 +20°C° 0 mm 5 mps 762 mmHg 34%
    12:00 +21°C° 0 mm 5 mps 762 mmHg 32%
    13:00 +22°C° 0 mm 4 mps 762 mmHg 31%
    14:00 +22°C° 0 mm 4 mps 762 mmHg 31%
    15:00 +22°C° 0 mm 3 mps 762 mmHg 32%
    16:00 +22°C° 0 mm 3 mps 762 mmHg 33%
    17:00 +20°C° 0 mm 3 mps 763 mmHg 40%
    18:00 +18°C° 0 mm 2 mps 763 mmHg 48%
    19:00 +16°C° 0 mm 2 mps 764 mmHg 56%
    20:00 +14°C° 0 mm 2 mps 764 mmHg 59%
    21:00 +13°C° 0 mm 2 mps 765 mmHg 62%
    22:00 +11°C° 0 mm 1 mps 765 mmHg 65%
    23:00 +11°C° 0 mm 1 mps 765 mmHg 66%

    23 May, Thursday

    Time Temperature Precipitation Wind Pressure Humidity
    00:00 +11°C° 0 mm 1 mps 765 mmHg 68%
    01:00 +10°C° 0 mm 1 mps 765 mmHg 69%
    02:00 +10°C° 0 mm 1 mps 765 mmHg 70%
    03:00 +10°C° 0 mm 1 mps 765 mmHg 71%
    04:00 +10°C° 0 mm 1 mps 765 mmHg 72%
    05:00 +11°C° 0 mm 1 mps 765 mmHg 67%
    06:00 +13°C° 0 mm 2 mps 765 mmHg 61%
    07:00 +15°C° 0 mm 2 mps 765 mmHg 56%
    08:00 +15°C° 0 mm 2 mps 764 mmHg 57%
    09:00 +15°C° 0 mm 2 mps 764 mmHg 57%
    10:00 +16°C° 0 mm 2 mps 764 mmHg 58%
    11:00 +17°C° 0 mm 3 mps 763 mmHg 56%
    12:00 +18°C° 0 mm 3 mps 763 mmHg 54%
    13:00 +20°C° 0 mm 4 mps 762 mmHg 52%
    14:00 +19°C° 0 mm 4 mps 761 mmHg 57%
    15:00 +19°C° 0 mm 4 mps 760 mmHg 63%
    16:00 +18°C° 0 mm 4 mps 760 mmHg 69%
    17:00 +17°C° 2 mm 3 mps 759 mmHg 77%
    18:00 +14°C° 2 mm 3 mps 759 mmHg 86%
    19:00 +14°C° 2 mm 2 mps 758 mmHg 94%
    20:00 +14°C° 2.1 mm 2 mps 757 mmHg 95%
    21:00 +14°C° 2.1 mm 2 mps 756 mmHg 95%
    22:00 +13°C° 2.1 mm 2 mps 756 mmHg 96%
    23:00 +14°C° 2 mm 2 mps 754 mmHg 97%

    24 May, Friday

    Time Temperature Precipitation Wind Pressure Humidity
    00:00 +14°C° 2 mm 2 mps 753 mmHg 97%
    01:00 +15°C° 2 mm 2 mps 752 mmHg 98%
    02:00 +15°C° 0.8 mm 2 mps 752 mmHg 98%
    03:00 +14°C° 0.8 mm 2 mps 751 mmHg 98%
    04:00 +14°C° 0.8 mm 2 mps 751 mmHg 98%
    05:00 +13°C° 0.1 mm 3 mps 752 mmHg 97%
    06:00 +12°C° 0.1 mm 4 mps 753 mmHg 96%
    07:00 +12°C° 0.1 mm 5 mps 753 mmHg 95%
    08:00 +11°C° 0.1 mm 4 mps 754 mmHg 94%
    09:00 +11°C° 0.1 mm 4 mps 755 mmHg 94%
    10:00 +11°C° 0.1 mm 4 mps 756 mmHg 93%
    11:00 +11°C° 0.1 mm 4 mps 757 mmHg 92%
    12:00 +11°C° 0.1 mm 4 mps 758 mmHg 91%
    13:00 +10°C° 0.1 mm 4 mps 759 mmHg 89%
    14:00 +11°C° 0 mm 3 mps 760 mmHg 84%
    15:00 +12°C° 0 mm 3 mps 760 mmHg 78%
    16:00 +12°C° 0 mm 3 mps 761 mmHg 73%
    17:00 +13°C° 0 mm 2 mps 761 mmHg 75%
    18:00 +12°C° 0 mm 2 mps 762 mmHg 78%
    19:00 +11°C° 0 mm 1 mps 762 mmHg 81%
    20:00 +10°C° 0 mm 1 mps 763 mmHg 85%
    21:00 +9°C° 0 mm 1 mps 763 mmHg 89%
    22:00 +8°C° 0 mm 1 mps 763 mmHg 93%
    23:00 +7°C° 0 mm 1 mps 763 mmHg 94%

    25 May, Saturday

    Time Temperature Precipitation Wind Pressure Humidity
    00:00 +7°C° 0 mm 1 mps 763 mmHg 94%
    01:00 +6°C° 0 mm 1 mps 763 mmHg 94%
    02:00 +6°C° 0 mm 1 mps 763 mmHg 94%
    03:00 +5°C° 0 mm 0 mps 763 mmHg 93%
    04:00 +5°C° 0 mm 0 mps 763 mmHg 93%
    05:00 +8°C° 0 mm 1 mps 763 mmHg 83%
    06:00 +10°C° 0 mm 1 mps 763 mmHg 72%
    07:00 +13°C° 0 mm 1 mps 763 mmHg 62%
    08:00 +15°C° 0 mm 1 mps 763 mmHg 57%
    09:00 +16°C° 0 mm 2 mps 763 mmHg 51%
    10:00 +18°C° 0 mm 3 mps 762 mmHg 46%
    11:00 +19°C° 0 mm 3 mps 762 mmHg 43%
    12:00 +21°C° 0 mm 3 mps 761 mmHg 41%
    13:00 +22°C° 0 mm 3 mps 760 mmHg 39%
    14:00 +22°C° 0 mm 4 mps 760 mmHg 40%
    15:00 +21°C° 0 mm 4 mps 759 mmHg 42%
    16:00 +21°C° 0 mm 4 mps 759 mmHg 44%
    17:00 +20°C° 0 mm 4 mps 759 mmHg 48%
    18:00 +18°C° 0 mm 4 mps 758 mmHg 51%
    19:00 +15°C° 0 mm 4 mps 758 mmHg 54%
    20:00 +14°C° 0.8 mm 3 mps 758 mmHg 66%
    21:00 +12°C° 0.8 mm 3 mps 758 mmHg 78%
    22:00 +11°C° 0.8 mm 3 mps 758 mmHg 90%
    23:00 +11°C° 0 mm 3 mps 758 mmHg 91%
    Show more